World > North America > United States > Ohio > Dunlap

Hourly Dunlap, OH Regional Weather

Feedback E-mail the Weather

Quick WX

Dunlap, OH Weather Maps

°F °C°F °C
Dunlap Weather Map
UTC Time: 8/19/2022, 11:49
Your Time:

Dunlap, OH Regional Weather

Expires:202208191200;;308577
ASUS41 KCLE 191110
RWRCLE
OHIO REGIONAL WEATHER ROUNDUP
NATIONAL WEATHER SERVICE CLEVELAND, OH
700 AM EDT FRI AUG 19 2022

NOTE: "FAIR" INDICATES FEW OR NO CLOUDS BELOW 12,000 FEET WITH NO
SIGNIFICANT WEATHER AND/OR OBSTRUCTIONS TO VISIBILITY.


OHZ042-051>053-060>062-070>072-077>081-191200-
  SOUTHWEST OHIO
  
CITY           SKY/WX    TMP DP  RH WIND       PRES   REMARKS
CINC-COVINGTON PTCLDY    64  60  87 CALM      30.03R                  
CINC-LUNKEN    MOCLDY    61  60  97 N3        30.04R FOG              
HAMILTON       CLEAR     59  57  93 CALM      30.04R                  
DAYTON         PTCLDY    63  58  83 SE3       30.05R                  
WRIGHT-PAT AFB CLEAR     60  58  93 E3        30.02R                  
DAYTON GENERAL CLEAR     62  57  83 CALM      30.04R                  
WILMINGTON     CLEAR     60  57  89 CALM      30.05R                  
$$


SKY/WX - Weather  TMP - Temperature  DP - Dew Point  RH - Humidity
WIND - Wind Direction/Speed PRES - Barometric Pressure VSB - Visibility
WCI - Wind Chill Index E13G22 Wind - East Wind 13 mph/Gusts of 22 mph

Trending Headlines

Dunlap Radar Loop



Dunlap Quick Facts


National Two Day Weather Forecast


E-mail the Dunlap Weather Forecast

Voice your opinion or tell us about page issues...